Wind_Speed
22 23 25 25 26 27 27 27 28 27 29 31 32 33 34 34 37 38 39 40 41 42 42 43 44 46 48 48 48 48 48 48 48 47 45 44 44 43 42 41 41 39 38 38
22 23 23 24 25 26 26 27 28 27 28 30 29 29 30 30 32 34 36 38 39 40 41 41 43 45 47 49 48 48 48 48 48 47 46 45 44 44 43 43 42 41 39 38
21 22 23 24 26 26 25 25 25 26 27 27 28 27 27 29 31 31 32 34 36 38 40 41 42 44 46 48 49 49 49 49 48 47 46 45 45 44 44 43 42 41 41 39
21 22 24 25 25 25 25 24 23 24 25 25 25 27 25 27 28 29 31 33 33 35 38 40 40 43 46 48 49 49 49 48 48 48 47 46 45 45 44 44 42 42 41 40
23 23 24 25 24 24 23 23 22 23 23 24 24 26 24 25 26 27 28 30 32 34 36 38 40 41 44 47 48 48 48 48 48 48 48 47 46 46 46 45 44 43 42 42
24 24 25 24 23 23 22 21 21 21 22 23 22 24 22 23 23 24 25 28 30 33 35 37 38 40 42 45 47 48 48 49 49 47 47 49 48 47 46 46 45 45 44 43
23 24 24 23 22 22 21 20 20 21 21 21 19 20 20 21 23 23 24 26 27 30 32 35 36 38 40 43 45 46 47 48 49 49 48 49 48 47 47 46 46 46 45 45
24 23 23 22 22 22 22 21 20 20 21 20 18 18 19 21 22 23 24 25 26 28 30 33 35 37 39 42 44 45 45 46 48 49 49 49 48 46 45 46 46 46 46 45
25 24 24 24 23 23 22 20 20 21 21 21 20 20 21 21 21 22 23 25 26 27 28 31 32 35 37 41 42 43 43 44 45 47 48 49 47 46 45 44 44 45 46 45
25 24 23 24 24 23 22 21 21 21 20 21 21 21 21 21 21 22 23 24 26 27 28 29 30 32 35 38 40 39 41 43 43 44 47 48 48 47 44 44 44 44 44 45
25 24 23 23 24 24 22 21 21 21 21 20 21 21 21 22 22 22 23 24 24 24 27 29 30 31 33 36 38 38 41 42 43 43 46 47 47 47 46 45 44 44 43 43
24 23 23 23 24 23 23 22 20 21 20 20 20 20 20 21 23 23 23 23 23 23 25 27 30 31 31 33 34 36 37 39 42 43 44 46 45 45 46 44 43 44 44 44
24 23 23 23 23 22 23 21 20 21 21 20 21 21 21 22 22 23 23 22 23 24 25 26 28 29 29 31 33 34 35 37 39 41 42 42 43 44 44 44 43 44 43 43
23 22 22 23 23 23 23 21 21 21 21 21 21 21 21 22 23 22 22 22 23 24 25 25 26 27 28 30 31 33 33 34 36 38 40 42 41 41 42 41 41 42 42 42
23 22 23 23 23 23 22 21 21 22 22 22 21 22 21 21 22 22 23 23 23 24 25 25 25 27 28 29 30 31 31 33 34 35 37 39 40 40 40 39 39 40 41 41
23 23 23 23 23 22 21 21 21 22 22 22 22 22 21 21 22 21 22 24 24 24 25 25 26 27 28 28 29 30 31 32 34 34 35 36 37 39 38 37 37 37 38 39
24 24 24 23 23 22 21 20 21 22 22 23 24 23 22 22 22 22 22 23 24 24 25 25 26 26 28 28 29 29 29 30 32 33 34 35 36 36 36 36 36 36 37 37
25 24 24 23 23 22 21 21 22 22 23 24 24 24 24 23 23 23 23 23 23 23 24 25 25 25 26 26 27 28 28 30 31 32 32 34 35 36 36 36 36 36 37 37
25 24 24 23 22 22 21 21 22 22 22 23 24 24 24 24 23 23 23 23 23 24 25 25 25 25 25 26 26 27 27 28 29 30 31 32 33 33 33 34 35 35 35 35
24 23 23 23 23 22 21 22 22 23 22 22 22 23 24 23 23 22 22 22 23 24 25 25 25 25 26 26 27 27 27 28 29 29 30 31 31 31 31 32 32 33 33 33
23 22 23 23 23 23 22 22 23 23 23 22 21 21 22 23 22 21 21 20 21 23 25 26 26 26 27 27 27 28 28 28 28 28 29 29 30 30 31 31 31 31 31 32
23 23 23 23 23 23 23 23 23 23 22 22 21 21 21 20 21 21 21 21 21 21 23 25 26 27 27 27 27 27 27 28 28 28 28 28 29 29 30 30 30 30 30 30
23 23 23 23 23 23 23 23 23 23 23 21 21 21 21 20 20 19 20 19 20 20 22 23 24 25 26 26 26 26 26 27 28 28 28 28 28 29 29 29 29 29 29 30
23 24 24 23 22 22 22 22 22 22 22 21 21 21 21 20 19 19 18 19 19 19 20 21 22 23 24 25 26 25 26 26 26 27 27 27 28 28 29 28 28 28 28 29
23 24 23 22 22 22 21 22 22 22 21 21 20 19 19 19 20 20 19 19 19 19 19 20 21 21 22 23 25 25 25 25 25 26 27 27 27 28 28 28 28 28 27 28
24 24 24 23 22 22 22 22 22 21 20 19 19 19 19 20 20 20 20 19 19 19 20 19 19 20 21 22 23 25 25 26 26 26 26 27 27 27 27 27 28 28 28 28
Wind_Direction
298 295 294 290 288 286 281 280 279 274 270 267 265 265 261 257 252 249 246 245 244 243 242 242 240 238 237 237 236 235 235 236 238 239 240 242 243 245 244 244 244 245 248 250
297 295 295 294 294 290 285 284 281 277 273 271 269 266 261 257 253 250 248 246 244 243 242 242 241 239 237 236 236 235 236 236 237 238 239 242 243 244 244 243 243 246 248 249
299 297 296 296 295 290 286 285 283 280 277 274 273 269 263 257 254 254 250 247 246 245 244 243 242 239 237 236 235 235 237 238 238 238 238 241 241 242 243 242 244 245 246 248
301 297 297 298 297 293 288 286 285 284 281 280 276 272 267 262 260 257 251 248 246 246 244 243 241 240 238 236 235 235 237 238 238 238 239 242 242 242 242 243 243 244 245 247
302 299 299 301 299 295 291 287 284 286 286 285 281 276 272 267 262 260 253 249 246 246 245 243 241 239 238 237 236 235 236 237 238 239 240 241 243 243 243 243 244 244 245 247
301 299 298 300 299 297 294 287 285 287 287 287 285 278 275 267 264 262 256 251 249 247 246 244 243 241 240 238 237 236 236 237 237 238 241 241 243 244 243 243 244 244 245 247
302 299 298 298 297 296 295 289 288 289 288 288 286 279 277 273 266 262 257 253 251 249 247 245 243 243 242 239 237 237 238 239 239 239 240 241 242 243 243 244 244 244 245 247
305 300 297 297 298 297 294 291 288 288 288 287 286 282 279 276 271 266 262 256 254 252 250 248 246 245 242 240 238 237 239 239 240 241 241 241 241 243 242 243 244 244 245 247
310 304 297 296 296 295 292 291 288 285 287 288 287 284 280 274 271 268 265 259 256 253 251 249 248 246 243 242 240 239 239 240 240 241 241 240 241 242 242 242 243 245 245 246
309 306 302 298 294 293 291 291 288 287 291 294 290 287 284 277 273 269 264 261 260 255 253 252 251 248 245 242 240 240 241 242 242 242 241 241 241 241 241 243 244 245 246 248
310 306 305 302 297 293 291 289 286 284 286 292 294 290 288 282 277 274 269 264 261 257 253 254 254 252 248 243 241 243 244 243 244 243 242 241 241 242 243 244 244 245 246 249
309 306 303 303 301 295 289 289 285 284 285 287 288 290 289 283 279 274 271 267 264 261 259 259 256 255 250 244 243 244 245 245 245 244 243 242 241 243 243 245 246 247 248 250
308 305 303 300 298 294 291 288 282 281 283 285 286 289 287 283 280 274 271 268 266 265 265 264 260 256 251 248 247 247 247 249 248 244 244 243 243 243 243 246 248 249 250 251
306 303 302 301 300 298 293 289 284 282 284 285 286 288 286 281 278 272 269 267 267 267 267 265 261 255 256 253 250 251 251 250 248 245 245 244 244 243 244 246 248 249 250 252
307 302 300 298 299 298 293 288 285 283 284 285 287 287 287 283 280 273 268 265 265 265 265 264 260 260 259 256 254 254 253 251 249 246 245 245 243 243 243 245 247 248 250 251
311 304 300 297 296 295 293 288 285 284 285 286 286 287 287 285 279 276 270 265 263 264 264 264 262 260 259 257 257 258 255 252 248 244 244 243 242 241 242 244 246 247 248 250
311 308 302 299 295 295 292 290 287 286 287 286 284 285 285 284 278 275 271 267 264 265 264 263 262 258 257 257 258 259 256 251 248 244 243 241 240 240 241 243 245 246 247 249
311 309 305 301 296 294 300 297 292 289 288 287 286 283 282 284 280 278 273 270 266 265 265 263 260 260 258 258 259 256 255 251 247 244 242 241 241 242 243 244 246 246 247 247
311 309 305 303 298 297 300 301 298 295 293 290 287 284 281 281 280 279 276 272 270 265 265 265 262 261 259 259 258 255 253 250 246 245 244 244 244 244 244 245 247 247 247 247
309 307 304 302 299 300 300 301 301 299 298 295 290 286 280 279 278 278 277 274 271 266 264 264 262 261 261 262 259 256 253 250 248 247 245 244 243 243 244 245 247 248 248 248
308 305 302 301 300 301 301 301 301 299 300 298 295 291 286 281 281 279 277 275 270 267 266 264 262 260 262 263 261 257 253 251 249 248 247 245 244 243 243 243 245 248 249 249
304 303 302 301 302 303 301 300 298 297 297 296 294 291 289 286 284 281 278 276 273 269 269 266 262 261 262 263 260 255 251 249 248 248 248 246 245 242 241 242 245 248 250 251
300 300 299 300 301 299 299 298 296 296 295 293 291 289 288 286 286 283 281 278 276 273 272 270 266 263 261 261 258 253 251 249 248 248 247 247 246 244 242 243 245 247 249 250
298 298 297 298 299 299 299 297 295 295 294 291 289 288 288 284 283 283 281 279 278 277 275 271 266 264 262 259 255 253 251 249 249 248 248 247 246 245 244 245 246 247 249 250
299 298 298 298 298 298 299 296 295 295 292 291 290 289 287 284 282 281 281 280 280 280 280 275 269 265 262 259 257 256 253 250 248 247 247 247 246 246 246 246 246 246 249 251
296 295 295 297 296 297 298 296 294 293 290 289 289 288 288 287 285 283 281 281 282 283 281 279 274 268 265 261 259 256 254 252 250 249 249 248 247 246 246 246 246 247 249 251
Height
5656 5654 5651 5648 5646 5644 5642 5641 5640 5640 5639 5639 5640 5641 5643 5644 5646 5648 5652 5656 5660 5665 5669 5673 5677 5682 5687 5692 5698 5703 5708 5712 5717 5721 5726 5729 5733 5737 5740 5743 5746 5749 5752 5755
5652 5650 5646 5644 5641 5639 5637 5635 5634 5634 5632 5631 5632 5633 5634 5635 5637 5641 5644 5647 5651 5655 5659 5663 5667 5672 5677 5683 5688 5692 5697 5702 5707 5711 5716 5720 5724 5728 5731 5734 5737 5740 5743 5747
5648 5646 5642 5639 5636 5634 5632 5630 5628 5627 5627 5626 5625 5626 5628 5628 5630 5632 5635 5639 5642 5646 5650 5654 5658 5662 5667 5672 5678 5682 5687 5692 5697 5701 5706 5710 5714 5718 5722 5725 5729 5732 5735 5738
5644 5641 5638 5635 5632 5629 5627 5626 5624 5622 5621 5620 5620 5620 5622 5622 5623 5625 5628 5631 5635 5638 5641 5645 5649 5653 5657 5662 5667 5672 5677 5682 5687 5691 5696 5700 5705 5709 5713 5717 5720 5723 5727 5730
5639 5637 5634 5630 5627 5624 5622 5621 5620 5618 5617 5616 5616 5615 5617 5616 5617 5619 5622 5625 5628 5631 5633 5637 5640 5644 5648 5652 5657 5662 5667 5673 5677 5682 5686 5691 5695 5700 5703 5707 5711 5714 5718 5721
5636 5632 5629 5626 5623 5620 5618 5617 5616 5614 5612 5613 5612 5611 5612 5612 5613 5614 5616 5618 5620 5623 5625 5628 5631 5635 5639 5643 5648 5653 5657 5663 5668 5673 5677 5682 5686 5690 5694 5698 5701 5705 5709 5712
5632 5629 5625 5623 5620 5617 5615 5613 5611 5609 5608 5608 5609 5607 5608 5608 5608 5609 5610 5612 5614 5616 5618 5621 5624 5627 5630 5634 5639 5644 5648 5653 5658 5663 5668 5672 5677 5680 5685 5689 5692 5696 5699 5703
5627 5625 5621 5618 5615 5613 5611 5610 5608 5606 5605 5605 5604 5603 5605 5604 5604 5604 5605 5606 5608 5610 5612 5614 5617 5620 5623 5626 5630 5635 5639 5644 5649 5654 5658 5663 5667 5671 5675 5679 5682 5686 5690 5693
5621 5620 5617 5614 5611 5609 5607 5605 5604 5603 5600 5600 5600 5600 5600 5600 5600 5600 5600 5601 5602 5604 5606 5608 5610 5612 5616 5619 5622 5626 5631 5635 5640 5644 5648 5653 5657 5661 5665 5669 5672 5676 5680 5683
5617 5615 5613 5610 5607 5605 5603 5602 5600 5599 5597 5595 5596 5596 5596 5595 5595 5595 5595 5595 5597 5598 5600 5601 5603 5605 5608 5611 5614 5617 5622 5626 5630 5634 5638 5643 5647 5651 5655 5659 5663 5667 5670 5674
5612 5610 5608 5606 5603 5600 5599 5598 5596 5594 5593 5592 5591 5594 5592 5591 5590 5590 5590 5590 5591 5592 5594 5595 5597 5599 5601 5603 5606 5610 5613 5617 5620 5624 5629 5633 5638 5642 5646 5650 5654 5657 5661 5664
5608 5605 5603 5601 5598 5595 5594 5593 5592 5592 5590 5588 5587 5590 5587 5586 5585 5584 5584 5585 5585 5586 5587 5588 5590 5592 5594 5596 5599 5602 5605 5609 5612 5616 5620 5624 5628 5632 5636 5640 5644 5648 5651 5654
5603 5601 5598 5596 5596 5592 5590 5588 5587 5586 5585 5584 5583 5585 5582 5580 5579 5579 5579 5579 5580 5581 5582 5582 5583 5585 5587 5590 5592 5594 5597 5600 5603 5607 5610 5614 5619 5623 5627 5631 5634 5638 5641 5645
5598 5595 5594 5592 5589 5586 5585 5584 5582 5581 5580 5579 5579 5578 5578 5575 5574 5574 5574 5574 5575 5575 5576 5577 5578 5579 5580 5583 5585 5587 5589 5592 5594 5598 5601 5606 5610 5614 5618 5621 5625 5628 5632 5635
5593 5591 5588 5586 5584 5581 5580 5579 5578 5576 5575 5574 5574 5573 5572 5570 5569 5568 5568 5569 5569 5570 5570 5571 5572 5573 5575 5576 5578 5579 5581 5583 5586 5589 5593 5597 5601 5605 5608 5612 5616 5619 5623 5626
5588 5586 5583 5582 5579 5577 5576 5575 5573 5571 5570 5568 5568 5568 5566 5564 5563 5563 5563 5563 5563 5564 5564 5565 5566 5567 5568 5570 5571 5572 5573 5575 5578 5581 5585 5588 5592 5596 5600 5603 5607 5610 5613 5617
5583 5580 5578 5576 5574 5572 5572 5570 5568 5566 5565 5563 5562 5563 5560 5559 5558 5557 5557 5557 5557 5558 5559 5559 5560 5561 5562 5563 5564 5565 5566 5568 5570 5573 5576 5580 5583 5587 5591 5595 5599 5602 5605 5608
5578 5575 5572 5570 5569 5567 5569 5565 5562 5561 5559 5557 5556 5555 5554 5553 5552 5551 5551 5551 5551 5552 5552 5553 5553 5554 5555 5557 5558 5558 5559 5561 5563 5566 5569 5572 5576 5579 5583 5587 5590 5593 5596 5599
5573 5570 5567 5565 5562 5561 5562 5559 5557 5555 5554 5552 5550 5549 5548 5547 5546 5546 5545 5545 5545 5545 5545 5546 5547 5548 5549 5550 5551 5552 5553 5555 5557 5559 5562 5565 5568 5572 5575 5579 5582 5585 5588 5591
5568 5565 5563 5559 5557 5556 5557 5554 5551 5550 5548 5546 5544 5542 5541 5540 5540 5541 5539 5538 5538 5538 5539 5539 5540 5541 5542 5543 5544 5545 5546 5548 5550 5553 5555 5558 5561 5564 5567 5570 5573 5576 5579 5582
5562 5560 5558 5554 5551 5551 5550 5548 5546 5545 5544 5540 5538 5536 5535 5534 5534 5534 5533 5532 5532 5532 5532 5532 5533 5534 5535 5536 5537 5538 5539 5541 5543 5545 5548 5550 5553 5557 5560 5563 5566 5568 5571 5574
5557 5554 5552 5549 5547 5548 5544 5542 5541 5539 5536 5534 5532 5531 5529 5529 5528 5527 5526 5526 5526 5525 5525 5526 5526 5527 5528 5529 5529 5531 5532 5534 5536 5538 5541 5543 5546 5549 5552 5555 5558 5561 5563 5566
5552 5550 5547 5546 5545 5541 5538 5536 5534 5532 5530 5528 5527 5526 5524 5523 5522 5521 5521 5520 5520 5519 5519 5519 5519 5520 5521 5521 5522 5524 5525 5527 5529 5531 5534 5536 5538 5541 5544 5547 5550 5553 5555 5558
5546 5543 5541 5539 5538 5535 5533 5530 5528 5526 5524 5523 5521 5520 5519 5517 5517 5516 5515 5514 5514 5513 5513 5513 5513 5513 5514 5514 5515 5516 5518 5519 5522 5524 5526 5529 5531 5534 5536 5539 5542 5545 5547 5550
5540 5537 5535 5533 5532 5530 5527 5525 5523 5521 5519 5517 5516 5514 5513 5512 5511 5510 5509 5509 5508 5508 5507 5507 5506 5507 5507 5508 5508 5510 5511 5513 5515 5517 5519 5522 5524 5526 5529 5531 5534 5537 5539 5541
5534 5531 5529 5528 5526 5524 5522 5519 5517 5515 5513 5512 5510 5509 5508 5506 5505 5505 5504 5503 5503 5502 5502 5501 5500 5500 5501 5501 5502 5503 5504 5506 5508 5510 5512 5514 5516 5518 5521 5523 5526 5528 5531 5533